Precipitable_Water
1.31 1.33 1.32 1.34 1.33 1.32 1.25 1.18 1.16 1.15 1.18 1.27 1.36 1.33 1.32 1.35 1.37 1.40 1.38 1.37 1.37 1.41 1.41 1.42 1.50 1.59 1.48 1.53 1.62 1.55 1.51 1.59 1.57 1.53 1.57 1.62 1.64 1.62 1.61 1.65 1.70 1.66 1.68
1.42 1.38 1.34 1.31 1.27 1.24 1.21 1.14 1.10 1.15 1.19 1.22 1.23 1.28 1.28 1.24 1.24 1.26 1.26 1.29 1.29 1.29 1.30 1.33 1.39 1.45 1.50 1.57 1.55 1.50 1.48 1.55 1.54 1.51 1.49 1.52 1.56 1.57 1.55 1.52 1.53 1.56 1.56
1.47 1.38 1.31 1.24 1.22 1.18 1.08 1.01 1.06 1.12 1.17 1.22 1.17 1.21 1.18 1.24 1.19 1.14 1.12 1.17 1.28 1.32 1.41 1.42 1.40 1.36 1.31 1.36 1.43 1.41 1.39 1.40 1.42 1.43 1.44 1.43 1.43 1.44 1.46 1.45 1.45 1.47 1.46
1.44 1.35 1.29 1.24 1.19 1.05 1.03 0.99 0.98 0.97 1.01 1.07 1.05 1.07 1.10 1.09 1.04 1.06 1.08 1.12 1.18 1.34 1.40 1.36 1.38 1.36 1.33 1.31 1.34 1.37 1.32 1.29 1.28 1.28 1.26 1.25 1.27 1.28 1.31 1.33 1.35 1.35 1.33
1.41 1.34 1.29 1.22 1.09 1.00 0.96 0.96 0.94 0.92 0.92 0.92 0.95 0.97 0.95 0.93 0.98 1.02 1.06 1.11 1.18 1.23 1.32 1.36 1.33 1.32 1.32 1.29 1.25 1.26 1.27 1.25 1.21 1.13 1.08 1.05 1.09 1.03 1.04 1.05 1.01 1.08 1.11
1.39 1.33 1.24 1.11 1.08 0.99 0.94 0.95 0.92 0.91 0.88 0.89 0.89 0.87 0.87 0.91 0.97 0.97 1.01 1.06 1.10 1.13 1.20 1.19 1.20 1.23 1.28 1.26 1.23 1.21 1.20 1.18 1.15 1.06 0.95 0.85 0.76 0.71 0.69 0.68 0.72 0.77 0.79
1.34 1.25 1.10 1.08 1.02 0.91 0.88 0.90 0.85 0.83 0.84 0.88 0.81 0.78 0.80 0.86 0.90 0.94 1.00 1.02 1.05 1.08 1.11 1.05 1.04 1.01 1.05 1.15 1.20 1.22 1.25 1.22 1.17 1.06 0.92 0.81 0.72 0.65 0.61 0.60 0.60 0.60 0.63
1.22 1.09 1.04 0.98 0.91 0.83 0.82 0.83 0.83 0.80 0.79 0.84 0.72 0.70 0.61 0.68 0.78 0.83 0.86 0.88 0.90 0.93 0.92 0.88 0.91 0.91 0.96 0.99 1.03 1.06 1.16 1.20 1.16 1.10 0.95 0.84 0.76 0.67 0.62 0.61 0.61 0.59 0.60
1.08 1.04 1.00 0.89 0.82 0.83 0.80 0.81 0.81 0.78 0.74 0.80 0.81 0.66 0.51 0.45 0.55 0.66 0.68 0.71 0.73 0.76 0.77 0.81 0.80 0.83 0.87 0.92 0.93 0.96 1.04 1.01 1.00 1.02 1.02 0.92 0.82 0.75 0.67 0.63 0.61 0.60 0.63
1.04 1.04 0.93 0.82 0.78 0.76 0.72 0.71 0.77 0.75 0.71 0.61 0.66 0.68 0.66 0.60 0.43 0.42 0.57 0.62 0.67 0.68 0.70 0.71 0.74 0.78 0.80 0.80 0.81 0.84 0.88 0.91 0.89 0.89 0.89 0.91 0.87 0.78 0.73 0.65 0.58 0.60 0.67
1.04 0.96 0.83 0.75 0.69 0.70 0.72 0.73 0.66 0.59 0.54 0.48 0.46 0.47 0.51 0.54 0.57 0.45 0.37 0.48 0.57 0.64 0.67 0.72 0.73 0.71 0.77 0.77 0.75 0.76 0.82 0.83 0.84 0.85 0.85 0.84 0.83 0.83 0.79 0.73 0.63 0.64 0.69
0.95 0.80 0.75 0.71 0.73 0.71 0.66 0.61 0.57 0.49 0.45 0.46 0.46 0.45 0.42 0.39 0.40 0.45 0.43 0.46 0.46 0.51 0.61 0.65 0.64 0.69 0.70 0.73 0.71 0.72 0.72 0.72 0.76 0.80 0.81 0.82 0.82 0.82 0.83 0.80 0.81 0.84 0.76
0.76 0.72 0.71 0.71 0.69 0.68 0.64 0.57 0.50 0.48 0.48 0.46 0.46 0.45 0.48 0.47 0.48 0.47 0.45 0.43 0.42 0.49 0.52 0.61 0.66 0.66 0.68 0.69 0.71 0.71 0.70 0.71 0.71 0.73 0.77 0.79 0.79 0.82 0.85 0.85 0.87 0.89 0.90
0.72 0.71 0.71 0.71 0.68 0.68 0.63 0.57 0.55 0.54 0.55 0.53 0.53 0.55 0.55 0.56 0.57 0.54 0.50 0.47 0.42 0.45 0.50 0.52 0.63 0.64 0.65 0.69 0.71 0.68 0.69 0.67 0.67 0.66 0.70 0.71 0.73 0.75 0.76 0.82 0.83 0.83 0.86
0.72 0.71 0.70 0.69 0.71 0.70 0.67 0.63 0.61 0.59 0.61 0.61 0.61 0.62 0.61 0.62 0.63 0.62 0.60 0.58 0.52 0.42 0.42 0.53 0.56 0.65 0.66 0.66 0.68 0.68 0.68 0.67 0.66 0.66 0.66 0.65 0.66 0.68 0.72 0.74 0.79 0.79 0.79
0.78 0.78 0.78 0.76 0.74 0.78 0.77 0.72 0.68 0.69 0.67 0.67 0.67 0.66 0.67 0.67 0.67 0.66 0.62 0.60 0.58 0.51 0.43 0.55 0.56 0.60 0.62 0.63 0.65 0.64 0.65 0.63 0.65 0.63 0.62 0.62 0.63 0.63 0.64 0.68 0.70 0.73 0.74
0.86 0.86 0.87 0.85 0.85 0.83 0.84 0.78 0.72 0.72 0.71 0.70 0.72 0.71 0.71 0.75 0.71 0.68 0.66 0.63 0.58 0.54 0.46 0.50 0.55 0.56 0.56 0.59 0.61 0.62 0.63 0.64 0.62 0.62 0.62 0.59 0.58 0.57 0.58 0.59 0.59 0.62 0.65
0.94 0.95 0.96 0.96 0.93 0.90 0.89 0.85 0.78 0.78 0.78 0.74 0.75 0.76 0.77 0.78 0.74 0.72 0.68 0.63 0.59 0.56 0.51 0.45 0.50 0.51 0.52 0.56 0.57 0.57 0.58 0.60 0.60 0.60 0.59 0.57 0.54 0.53 0.52 0.51 0.51 0.53 0.56
0.94 0.99 1.01 1.00 1.01 0.99 0.96 0.94 0.94 0.89 0.85 0.82 0.80 0.80 0.82 0.79 0.73 0.71 0.69 0.65 0.60 0.53 0.52 0.47 0.46 0.50 0.50 0.52 0.52 0.54 0.54 0.56 0.58 0.57 0.55 0.54 0.51 0.49 0.48 0.46 0.45 0.45 0.48
0.99 1.02 1.00 0.94 0.98 0.98 0.97 0.96 0.94 0.88 0.83 0.80 0.83 0.84 0.80 0.75 0.73 0.70 0.65 0.59 0.54 0.48 0.47 0.46 0.46 0.45 0.46 0.48 0.50 0.47 0.46 0.50 0.50 0.53 0.51 0.48 0.48 0.45 0.44 0.44 0.43 0.40 0.40
1.02 1.00 0.92 0.88 0.91 0.92 0.89 0.88 0.85 0.81 0.79 0.77 0.73 0.77 0.75 0.72 0.68 0.60 0.55 0.49 0.49 0.45 0.44 0.44 0.42 0.43 0.43 0.43 0.44 0.47 0.45 0.47 0.47 0.48 0.46 0.47 0.45 0.43 0.44 0.43 0.41 0.40 0.40
1.00 0.96 0.93 0.91 0.87 0.84 0.82 0.81 0.79 0.76 0.74 0.71 0.70 0.68 0.66 0.59 0.55 0.54 0.52 0.52 0.51 0.46 0.43 0.42 0.42 0.40 0.43 0.45 0.46 0.45 0.44 0.42 0.37 0.48 0.44 0.42 0.44 0.41 0.41 0.41 0.42 0.41 0.40
0.93 0.89 0.86 0.84 0.79 0.76 0.74 0.71 0.71 0.68 0.63 0.60 0.58 0.54 0.50 0.50 0.51 0.49 0.49 0.48 0.48 0.46 0.47 0.45 0.42 0.43 0.43 0.46 0.47 0.44 0.44 0.44 0.42 0.46 0.44 0.38 0.43 0.39 0.41 0.41 0.42 0.42 0.41
0.86 0.83 0.78 0.74 0.69 0.65 0.63 0.59 0.54 0.51 0.50 0.49 0.49 0.48 0.47 0.47 0.47 0.48 0.47 0.44 0.43 0.44 0.44 0.43 0.43 0.43 0.45 0.46 0.46 0.46 0.45 0.44 0.44 0.44 0.44 0.34 0.40 0.38 0.40 0.41 0.41 0.40 0.40
0.79 0.73 0.67 0.62 0.55 0.49 0.47 0.45 0.44 0.43 0.42 0.41 0.43 0.44 0.44 0.44 0.46 0.46 0.44 0.42 0.41 0.40 0.41 0.40 0.40 0.40 0.42 0.44 0.45 0.44 0.40 0.38 0.35 0.37 0.41 0.37 0.37 0.36 0.37 0.37 0.40 0.38 0.37
0.69 0.61 0.53 0.45 0.41 0.39 0.41 0.39 0.37 0.37 0.36 0.37 0.38 0.40 0.41 0.41 0.42 0.42 0.40 0.37 0.33 0.33 0.33 0.32 0.33 0.34 0.37 0.39 0.42 0.45 0.43 0.39 0.38 0.36 0.41 0.37 0.35 0.34 0.30 0.35 0.36 0.37 0.35
Wind_Speed
10 11 12 13 14 16 18 19 21 21 21 17 15 11 7 8 10 10 10 11 11 12 14 15 15 13 12 14 12 12 10 12 13 15 14 15 18 18 19 17 14 17 18
10 12 13 14 15 17 19 20 20 19 18 15 14 11 8 10 11 11 11 10 11 10 10 11 11 11 11 12 14 13 12 10 11 13 14 18 16 17 14 20 19 19 19
11 13 13 15 17 19 19 20 19 18 16 14 12 11 12 12 11 11 10 10 11 10 10 11 12 14 14 16 15 15 15 14 14 14 15 17 20 21 22 20 21 21 21
12 13 15 16 18 18 18 18 18 17 15 14 13 12 13 13 12 11 11 10 11 11 12 12 15 16 16 16 16 16 16 17 18 18 19 20 21 22 23 23 25 26 26
13 14 16 17 17 17 18 17 17 17 16 15 14 13 14 13 12 12 13 13 14 14 15 16 17 18 18 19 19 20 19 19 19 21 22 22 23 24 25 26 26 26 27
15 16 16 16 17 17 17 17 17 17 17 16 15 15 15 15 14 15 15 16 17 17 18 19 20 20 22 21 22 22 23 22 22 23 23 24 24 24 24 24 25 25 25
16 15 16 17 17 17 17 17 17 17 16 16 16 17 18 17 17 17 17 17 17 18 19 20 20 21 22 21 22 25 27 25 24 23 23 23 25 24 24 24 23 23 23
15 16 17 17 17 17 17 18 18 18 18 18 19 20 19 19 19 18 17 17 17 18 20 20 21 22 21 23 23 24 25 24 24 24 24 24 24 24 24 24 23 23 23
16 17 18 18 18 18 19 20 20 20 21 22 22 22 21 20 21 20 20 20 20 21 21 22 22 23 24 25 26 26 26 26 26 25 23 24 24 25 25 25 24 24 23
17 18 19 19 19 20 21 21 22 23 24 24 25 25 25 24 22 22 22 23 24 24 25 25 25 26 26 27 28 28 28 28 28 28 28 27 27 26 25 25 25 24 23
19 19 19 19 20 22 23 24 24 25 26 26 27 26 26 26 27 27 26 26 27 28 28 28 28 28 28 28 29 29 29 29 30 29 29 28 27 27 26 25 25 24 23
20 20 20 21 23 24 25 25 26 27 27 27 27 27 27 27 27 27 28 28 29 29 30 30 30 30 30 30 30 31 31 32 33 33 31 31 30 29 27 26 26 25 23
21 22 22 23 24 25 26 26 27 27 28 28 27 27 26 26 27 27 28 29 30 31 31 32 33 32 31 32 33 32 33 32 32 33 33 31 31 30 29 27 27 26 26
22 23 24 25 25 26 27 27 28 28 28 28 27 27 27 27 28 28 29 29 30 31 32 32 32 33 32 33 33 33 32 33 33 33 33 33 32 31 30 30 28 30 30
23 24 25 26 27 28 28 29 29 29 29 28 28 27 28 28 28 29 30 30 31 33 32 32 31 32 32 33 33 32 31 31 30 29 30 30 31 31 30 30 29 27 27
25 26 27 28 29 30 30 31 30 30 29 29 29 29 29 29 30 30 30 31 32 32 32 32 33 33 33 33 32 31 30 28 26 25 24 25 26 27 28 29 29 29 27
27 29 30 30 31 32 32 32 32 31 31 31 31 31 31 32 32 31 32 32 33 34 34 35 35 34 33 33 32 30 28 26 25 23 22 22 21 22 24 25 27 28 28
30 31 32 33 34 34 34 34 34 34 34 34 34 34 34 34 33 34 34 34 34 35 35 35 35 33 33 31 30 28 27 26 25 24 23 23 21 21 20 21 23 25 26
31 32 33 34 35 36 36 36 36 37 36 36 36 36 34 34 35 36 36 36 37 36 35 35 33 32 30 28 27 26 26 25 24 24 23 23 22 22 22 21 21 21 23
32 33 34 35 35 35 36 35 35 36 34 35 35 34 34 36 36 35 36 36 36 34 34 33 31 29 28 26 25 25 25 25 25 25 24 23 22 22 21 21 20 20 21
32 32 33 33 34 34 34 34 36 36 35 35 35 34 35 35 36 37 36 36 35 34 33 30 29 28 26 25 26 26 26 26 26 26 25 24 23 22 21 21 21 21 21
30 31 33 33 35 36 36 38 37 35 36 38 36 37 37 36 36 36 36 35 34 32 30 30 29 29 28 28 27 27 27 27 27 28 27 26 25 24 23 22 21 21 21
31 33 35 36 35 35 36 38 39 39 38 38 38 38 37 37 36 35 33 31 29 28 28 28 28 28 28 29 29 29 29 30 29 28 28 27 27 26 25 25 24 23 22
35 36 35 37 38 38 39 38 38 37 37 37 37 37 37 36 35 32 30 28 27 27 27 28 28 28 29 29 30 31 31 30 29 30 30 28 28 26 26 26 25 25 24
36 35 35 37 38 37 37 37 37 37 36 35 35 35 34 32 30 28 27 26 26 26 26 25 25 27 28 29 29 29 30 30 29 30 31 29 28 27 27 27 27 26 25
34 35 36 35 35 36 37 37 37 36 34 33 33 30 28 26 25 24 24 23 22 21 22 22 23 22 22 22 24 26 28 29 28 28 30 29 29 28 28 28 28 27 26
Wind_Direction
305 313 319 321 323 324 324 324 327 329 334 339 344 344 340 322 314 308 299 296 292 287 285 284 283 283 296 248 226 248 267 238 250 247 249 251 247 256 243 244 249 250 248
303 309 314 317 321 322 323 324 327 329 333 335 335 335 326 322 318 312 306 299 301 301 296 287 277 282 274 273 284 280 279 265 257 259 253 250 252 250 257 249 246 250 249
301 307 310 314 319 323 325 325 326 329 329 330 331 329 321 316 315 311 307 301 298 301 298 297 288 286 279 277 279 278 275 272 268 264 264 261 256 257 256 259 251 247 249
296 304 307 312 317 321 325 327 327 328 326 324 322 320 316 310 305 304 301 302 301 295 294 296 293 290 288 282 277 277 277 273 272 269 269 266 264 261 259 258 256 255 256
294 301 307 311 316 320 322 324 326 325 323 320 318 315 315 310 305 298 297 294 295 292 290 293 295 290 285 282 279 276 276 276 278 274 271 270 267 265 263 262 261 259 258
294 300 305 310 314 316 319 320 321 321 318 313 312 312 310 305 300 298 294 292 292 291 289 291 289 288 286 284 279 278 277 276 279 280 274 272 270 267 264 264 262 260 259
291 297 302 306 309 312 313 315 318 317 314 310 308 307 305 302 298 297 295 292 289 288 289 293 291 290 286 285 281 280 277 274 277 282 278 275 271 268 265 264 261 260 258
288 293 298 302 304 306 309 309 309 310 310 302 304 301 300 297 295 294 293 293 291 290 290 291 291 291 287 285 285 284 280 277 277 279 275 279 272 269 265 261 261 260 259
286 290 295 298 300 301 302 304 304 303 303 299 299 297 296 294 294 291 290 291 289 290 290 289 289 289 287 284 285 282 281 280 278 279 279 278 274 269 266 262 260 259 257
284 288 292 294 295 298 299 300 300 299 300 299 298 293 291 289 289 291 291 290 289 288 289 289 288 287 285 285 284 284 282 279 279 279 277 275 274 271 266 261 259 256 254
283 287 288 290 293 296 297 298 298 298 297 299 297 294 291 290 289 288 291 291 291 289 288 288 288 287 286 284 282 283 282 281 278 278 276 276 273 270 266 261 258 256 253
283 285 285 289 292 293 295 295 296 296 297 297 296 292 290 290 290 290 291 293 294 295 291 288 288 287 287 285 285 280 280 279 278 275 276 274 271 268 266 261 257 256 250
282 284 286 289 291 292 292 294 295 295 295 295 294 292 290 290 290 289 291 291 292 292 291 289 285 286 285 285 284 282 281 280 277 274 272 271 269 266 261 260 255 251 253
282 285 287 289 289 291 291 292 294 295 295 294 293 291 290 290 290 290 290 290 293 293 292 290 289 286 285 284 282 282 280 279 277 274 270 267 266 264 260 257 257 254 255
283 286 288 289 289 290 291 291 293 293 294 292 291 290 291 290 291 291 291 291 291 292 292 292 289 287 285 283 282 279 278 277 275 272 270 267 263 261 259 257 255 256 256
284 287 289 290 289 290 291 291 291 292 292 292 290 290 290 290 291 292 292 292 291 292 291 292 290 289 285 282 280 278 275 272 270 270 268 267 264 262 259 256 255 254 255
284 288 290 290 289 289 289 289 289 290 291 290 289 289 288 289 290 290 293 292 291 290 289 290 291 289 285 281 277 273 269 266 266 265 267 267 265 264 262 258 256 254 252
285 287 289 290 289 289 289 288 288 288 289 290 288 287 288 287 287 291 292 290 290 291 288 288 290 288 285 280 273 267 264 263 263 263 263 264 264 266 266 262 259 255 253
287 288 290 291 291 289 288 288 288 288 290 290 289 288 287 289 290 291 292 291 291 290 289 288 288 287 284 277 271 266 262 261 260 262 263 263 265 265 263 264 261 257 253
288 290 292 293 293 290 290 290 289 291 288 290 289 286 286 288 289 289 290 291 292 292 290 288 287 284 281 276 270 264 261 260 260 260 260 263 264 263 263 261 260 258 255
289 289 290 291 293 290 291 293 293 293 289 290 287 286 290 290 290 291 291 292 291 290 289 286 283 281 279 275 269 266 263 259 260 260 260 261 262 262 262 262 259 256 255
288 291 291 290 291 292 290 295 294 292 292 292 288 289 292 292 292 292 292 291 290 289 286 285 281 279 276 274 270 265 262 259 262 258 258 260 259 261 261 260 259 257 256
292 293 293 295 292 294 296 297 295 294 293 291 290 290 291 291 290 291 291 291 289 289 288 285 283 281 278 274 269 265 263 261 261 258 257 258 258 260 259 259 258 257 257
287 294 291 293 294 295 299 299 298 296 295 293 292 291 291 290 290 289 288 288 289 289 289 288 285 282 280 277 271 267 263 261 260 257 255 258 256 259 258 257 257 256 256
285 290 293 296 296 298 300 300 299 297 295 294 293 292 291 291 289 288 287 287 288 290 291 291 289 286 283 279 276 269 261 258 260 257 254 256 255 257 257 256 256 255 256
288 292 295 297 299 300 301 301 299 297 297 295 295 294 292 290 290 289 288 287 289 290 293 296 296 293 290 286 281 272 264 258 258 257 254 254 253 255 258 255 254 253 255